TimeMDT,TemperatureF,Dew PointF,Humidity,Sea Level PressureIn,VisibilityMPH,Wind Direction,Wind SpeedMPH,Gust SpeedMPH,PrecipitationIn,Events,Conditions,WindDirDegrees,DateUTC
12:51 AM,36.0,27.0,70,29.94,10.0,NE,3.5,-,N/A,,Clear,50,2013-05-24 06:51:00
1:51 AM,34.0,27.0,75,29.96,10.0,Calm,Calm,-,N/A,,Mostly Cloudy,0,2013-05-24 07:51:00
2:51 AM,34.0,27.0,75,29.95,10.0,Calm,Calm,-,N/A,,Partly Cloudy,0,2013-05-24 08:51:00
3:51 AM,30.9,26.1,82,29.95,10.0,Calm,Calm,-,N/A,,Clear,0,2013-05-24 09:51:00
4:51 AM,30.9,26.1,82,29.95,10.0,NE,5.8,-,N/A,,Mostly Cloudy,50,2013-05-24 10:51:00
5:51 AM,32.0,28.0,85,29.94,10.0,Calm,Calm,-,N/A,,Partly Cloudy,0,2013-05-24 11:51:00
6:51 AM,33.1,28.0,82,29.96,10.0,Calm,Calm,-,N/A,,Overcast,0,2013-05-24 12:51:00
7:51 AM,36.0,28.9,76,29.97,10.0,Variable,3.5,-,N/A,,Overcast,0,2013-05-24 13:51:00
8:51 AM,37.9,30.0,73,29.98,10.0,Calm,Calm,-,N/A,,Overcast,0,2013-05-24 14:51:00
9:51 AM,39.9,28.9,65,29.99,10.0,South,8.1,-,N/A,,Overcast,170,2013-05-24 15:51:00
10:51 AM,43.0,28.9,58,29.97,10.0,South,9.2,-,N/A,,Overcast,190,2013-05-24 16:51:00
11:51 AM,43.0,28.9,58,29.99,10.0,SSW,4.6,-,N/A,,Overcast,210,2013-05-24 17:51:00
12:51 PM,43.0,30.0,60,30.02,10.0,SW,17.3,26.5,N/A,,Overcast,220,2013-05-24 18:51:00
1:51 PM,46.0,28.9,51,30.00,10.0,SW,8.1,17.3,N/A,,Overcast,230,2013-05-24 19:51:00
2:51 PM,48.9,28.0,44,29.99,10.0,South,10.4,-,N/A,,Overcast,180,2013-05-24 20:51:00
3:51 PM,50.0,27.0,41,29.99,10.0,SSW,11.5,19.6,N/A,,Overcast,210,2013-05-24 21:51:00
4:51 PM,51.1,27.0,39,29.98,10.0,SSW,18.4,23.0,N/A,,Overcast,200,2013-05-24 22:51:00
5:51 PM,51.1,27.0,39,29.97,10.0,South,11.5,-,N/A,,Overcast,180,2013-05-24 23:51:00
6:51 PM,51.1,27.0,39,29.96,10.0,SSW,3.5,-,N/A,,Overcast,210,2013-05-25 00:51:00
7:51 PM,50.0,26.1,39,29.96,10.0,WSW,6.9,-,N/A,,Mostly Cloudy,240,2013-05-25 01:51:00
8:51 PM,48.9,30.9,50,29.96,10.0,NNW,5.8,-,N/A,,Mostly Cloudy,330,2013-05-25 02:51:00
9:51 PM,46.0,30.9,56,29.97,10.0,NW,6.9,-,N/A,,Mostly Cloudy,310,2013-05-25 03:51:00
10:51 PM,45.0,33.1,63,29.98,10.0,North,8.1,-,N/A,,Mostly Cloudy,350,2013-05-25 04:51:00
11:51 PM,43.0,33.1,68,29.98,10.0,North,9.2,-,N/A,,Partly Cloudy,360,2013-05-25 05:51:00